QPF
0.00 0.00 0.00 0.00 0.00 0.00 0.00 0.00 0.00 0.01 0.01 0.01 0.01 0.01 0.01 0.02 0.05 0.04 0.05 0.06 0.09 0.14 0.20 0.23 0.25 0.26 0.26 0.26 0.26 0.28 0.28 0.27 0.27 0.24 0.24 0.23 0.20 0.17 0.14 0.13 0.15 0.14 0.13
0.00 0.00 0.00 0.00 0.00 0.00 0.00 0.00 0.00 0.00 0.00 0.01 0.00 0.00 0.01 0.01 0.03 0.03 0.04 0.04 0.04 0.07 0.10 0.14 0.17 0.20 0.20 0.22 0.22 0.22 0.21 0.20 0.22 0.21 0.20 0.18 0.16 0.12 0.07 0.06 0.05 0.06 0.09
0.00 0.00 0.00 0.00 0.00 0.00 0.00 0.00 0.00 0.00 0.00 0.00 0.00 0.00 0.00 0.01 0.01 0.01 0.02 0.02 0.02 0.05 0.07 0.10 0.12 0.16 0.19 0.20 0.21 0.20 0.18 0.15 0.14 0.15 0.15 0.11 0.09 0.09 0.05 0.04 0.02 0.03 0.05
0.00 0.00 0.00 0.00 0.00 0.00 0.00 0.00 0.00 0.00 0.00 0.00 0.00 0.00 0.00 0.00 0.00 0.00 0.01 0.01 0.01 0.02 0.03 0.06 0.08 0.11 0.15 0.18 0.18 0.20 0.19 0.16 0.11 0.11 0.09 0.06 0.07 0.08 0.08 0.06 0.02 0.02 0.02
0.00 0.00 0.00 0.00 0.00 0.00 0.00 0.00 0.00 0.00 0.01 0.01 0.00 0.00 0.00 0.00 0.00 0.00 0.00 0.00 0.00 0.00 0.01 0.01 0.03 0.05 0.08 0.13 0.15 0.20 0.19 0.18 0.13 0.10 0.09 0.07 0.04 0.03 0.04 0.05 0.03 0.02 0.01
0.00 0.00 0.00 0.00 0.00 0.00 0.00 0.00 0.00 0.00 0.01 0.00 0.00 0.00 0.01 0.01 0.00 0.00 0.00 0.00 0.00 0.00 0.00 0.00 0.01 0.01 0.03 0.05 0.08 0.12 0.16 0.19 0.18 0.12 0.09 0.10 0.07 0.03 0.01 0.01 0.02 0.02 0.00
0.00 0.00 0.00 0.00 0.00 0.00 0.00 0.00 0.00 0.00 0.00 0.00 0.00 0.00 0.00 0.01 0.01 0.01 0.01 0.01 0.00 0.00 0.00 0.00 0.00 0.00 0.01 0.02 0.04 0.06 0.11 0.16 0.17 0.15 0.12 0.10 0.07 0.04 0.03 0.01 0.00 0.00 0.00
0.00 0.00 0.00 0.00 0.00 0.00 0.00 0.00 0.00 0.00 0.00 0.00 0.00 0.00 0.00 0.00 0.00 0.00 0.01 0.00 0.00 0.00 0.00 0.00 0.00 0.00 0.00 0.01 0.01 0.02 0.05 0.10 0.13 0.16 0.18 0.16 0.09 0.06 0.05 0.03 0.02 0.02 0.01
0.00 0.00 0.00 0.00 0.00 0.00 0.00 0.00 0.00 0.00 0.00 0.00 0.00 0.00 0.00 0.00 0.00 0.00 0.00 0.00 0.00 0.00 0.00 0.00 0.00 0.00 0.00 0.00 0.00 0.01 0.03 0.05 0.08 0.13 0.18 0.18 0.15 0.12 0.08 0.05 0.03 0.03 0.04
0.00 0.00 0.00 0.00 0.00 0.00 0.00 0.00 0.00 0.00 0.00 0.00 0.00 0.00 0.00 0.00 0.00 0.00 0.00 0.00 0.00 0.00 0.00 0.00 0.00 0.00 0.00 0.00 0.00 0.00 0.01 0.02 0.04 0.07 0.13 0.18 0.20 0.20 0.15 0.10 0.06 0.05 0.04
0.00 0.00 0.00 0.00 0.00 0.00 0.00 0.00 0.00 0.00 0.00 0.00 0.00 0.00 0.00 0.00 0.00 0.00 0.00 0.01 0.01 0.01 0.01 0.01 0.00 0.00 0.00 0.00 0.01 0.00 0.00 0.01 0.02 0.04 0.07 0.11 0.17 0.23 0.23 0.20 0.15 0.10 0.08
0.00 0.00 0.00 0.00 0.00 0.00 0.00 0.00 0.00 0.00 0.00 0.00 0.00 0.00 0.00 0.00 0.00 0.00 0.00 0.01 0.01 0.01 0.01 0.01 0.01 0.01 0.00 0.01 0.01 0.01 0.01 0.01 0.01 0.02 0.04 0.06 0.11 0.17 0.22 0.27 0.25 0.20 0.17
0.00 0.00 0.00 0.00 0.00 0.00 0.00 0.00 0.00 0.00 0.00 0.00 0.00 0.00 0.00 0.00 0.01 0.01 0.00 0.01 0.01 0.01 0.01 0.01 0.02 0.01 0.01 0.01 0.01 0.02 0.01 0.01 0.01 0.01 0.02 0.05 0.08 0.12 0.18 0.23 0.26 0.28 0.26
0.00 0.00 0.00 0.00 0.00 0.00 0.00 0.00 0.00 0.00 0.00 0.00 0.00 0.00 0.01 0.01 0.01 0.01 0.01 0.01 0.01 0.01 0.02 0.02 0.03 0.03 0.03 0.02 0.02 0.03 0.03 0.03 0.02 0.02 0.01 0.02 0.06 0.10 0.15 0.22 0.27 0.30 0.31
0.00 0.00 0.00 0.00 0.00 0.00 0.00 0.00 0.00 0.00 0.00 0.00 0.01 0.01 0.01 0.01 0.01 0.01 0.01 0.01 0.01 0.01 0.02 0.03 0.04 0.05 0.04 0.02 0.03 0.04 0.04 0.05 0.04 0.03 0.02 0.02 0.03 0.05 0.10 0.17 0.24 0.30 0.33
0.00 0.00 0.00 0.00 0.00 0.00 0.00 0.00 0.00 0.00 0.01 0.01 0.01 0.01 0.01 0.01 0.01 0.01 0.01 0.02 0.02 0.03 0.04 0.04 0.05 0.05 0.03 0.02 0.03 0.03 0.04 0.06 0.06 0.06 0.05 0.03 0.02 0.02 0.05 0.10 0.17 0.24 0.31
0.00 0.00 0.00 0.00 0.00 0.00 0.00 0.00 0.00 0.01 0.01 0.01 0.01 0.01 0.01 0.01 0.01 0.02 0.02 0.03 0.04 0.06 0.06 0.05 0.06 0.07 0.07 0.05 0.04 0.03 0.04 0.05 0.07 0.08 0.08 0.04 0.01 0.02 0.03 0.05 0.08 0.15 0.22
0.00 0.00 0.00 0.00 0.00 0.00 0.00 0.00 0.00 0.01 0.01 0.01 0.01 0.01 0.02 0.02 0.02 0.02 0.03 0.05 0.07 0.07 0.07 0.06 0.07 0.08 0.08 0.06 0.04 0.03 0.04 0.05 0.07 0.08 0.09 0.08 0.06 0.06 0.06 0.05 0.05 0.07 0.11
0.00 0.00 0.00 0.00 0.00 0.00 0.00 0.01 0.01 0.01 0.01 0.01 0.01 0.01 0.02 0.02 0.02 0.03 0.05 0.07 0.07 0.07 0.08 0.08 0.09 0.10 0.10 0.07 0.04 0.04 0.06 0.08 0.07 0.07 0.08 0.09 0.07 0.07 0.05 0.06 0.06 0.06 0.08
0.00 0.00 0.00 0.00 0.00 0.00 0.01 0.01 0.01 0.01 0.01 0.01 0.01 0.01 0.02 0.03 0.03 0.05 0.07 0.07 0.07 0.08 0.08 0.08 0.09 0.11 0.12 0.11 0.05 0.04 0.07 0.11 0.11 0.11 0.11 0.09 0.09 0.09 0.03 0.04 0.05 0.05 0.07
0.00 0.00 0.00 0.00 0.00 0.01 0.01 0.02 0.01 0.02 0.02 0.01 0.01 0.01 0.02 0.03 0.04 0.06 0.08 0.07 0.08 0.09 0.09 0.09 0.10 0.12 0.13 0.10 0.04 0.02 0.08 0.13 0.15 0.14 0.12 0.10 0.06 0.04 0.02 0.02 0.04 0.04 0.05
0.00 0.00 0.00 0.00 0.01 0.01 0.02 0.02 0.02 0.02 0.01 0.01 0.01 0.01 0.02 0.03 0.03 0.06 0.07 0.08 0.10 0.09 0.09 0.10 0.10 0.12 0.13 0.09 0.04 0.01 0.04 0.10 0.17 0.17 0.15 0.14 0.08 0.03 0.01 0.01 0.01 0.01 0.02
0.00 0.00 0.00 0.00 0.01 0.01 0.02 0.02 0.02 0.02 0.01 0.01 0.02 0.02 0.02 0.04 0.06 0.08 0.08 0.08 0.10 0.10 0.10 0.10 0.10 0.10 0.12 0.10 0.03 0.01 0.01 0.03 0.10 0.15 0.16 0.13 0.06 0.03 0.02 0.01 0.00 0.01 0.01
0.00 0.00 0.00 0.00 0.01 0.01 0.01 0.02 0.02 0.02 0.02 0.02 0.02 0.02 0.02 0.03 0.05 0.09 0.09 0.09 0.09 0.08 0.08 0.08 0.09 0.10 0.11 0.12 0.08 0.04 0.02 0.02 0.04 0.07 0.08 0.07 0.04 0.02 0.02 0.01 0.00 0.00 0.01
0.00 0.00 0.00 0.00 0.01 0.01 0.01 0.01 0.01 0.02 0.02 0.01 0.01 0.01 0.02 0.04 0.05 0.09 0.10 0.06 0.05 0.03 0.02 0.03 0.06 0.08 0.09 0.08 0.05 0.06 0.07 0.06 0.04 0.06 0.10 0.08 0.06 0.03 0.02 0.03 0.03 0.02 0.02
0.00 0.00 0.00 0.00 0.00 0.01 0.01 0.01 0.01 0.01 0.02 0.01 0.01 0.02 0.02 0.04 0.06 0.09 0.10 0.06 0.02 0.01 0.00 0.00 0.01 0.02 0.02 0.01 0.01 0.01 0.02 0.02 0.02 0.04 0.11 0.13 0.12 0.09 0.07 0.07 0.06 0.04 0.03
MSLP
1012.47 1012.63 1012.67 1012.59 1012.42 1012.21 1012.03 1011.92 1011.91 1011.99 1012.12 1012.24 1012.29 1012.23 1012.01 1011.65 1011.19 1010.67 1010.18 1009.77 1009.48 1009.33 1009.31 1009.41 1009.56 1009.72 1009.86 1009.96 1010.01 1010.02 1010.00 1009.98 1009.96 1009.97 1010.00 1010.04 1010.08 1010.13 1010.17 1010.21 1010.25 1010.31 1010.40
1011.95 1012.21 1012.36 1012.38 1012.28 1012.13 1011.99 1011.91 1011.93 1012.04 1012.21 1012.37 1012.46 1012.41 1012.18 1011.78 1011.23 1010.62 1010.03 1009.52 1009.17 1008.99 1008.99 1009.13 1009.35 1009.60 1009.81 1009.96 1010.02 1010.01 1009.94 1009.84 1009.73 1009.65 1009.59 1009.55 1009.54 1009.53 1009.53 1009.54 1009.55 1009.58 1009.63
1011.35 1011.70 1011.94 1012.06 1012.06 1011.98 1011.88 1011.84 1011.88 1012.02 1012.22 1012.41 1012.52 1012.49 1012.26 1011.84 1011.26 1010.60 1009.94 1009.38 1008.98 1008.78 1008.78 1008.94 1009.20 1009.49 1009.74 1009.91 1009.98 1009.95 1009.83 1009.67 1009.49 1009.33 1009.20 1009.11 1009.05 1009.00 1008.97 1008.94 1008.91 1008.90 1008.92
1010.80 1011.20 1011.53 1011.74 1011.82 1011.81 1011.76 1011.74 1011.80 1011.95 1012.16 1012.36 1012.50 1012.49 1012.29 1011.88 1011.31 1010.65 1009.97 1009.39 1008.96 1008.73 1008.71 1008.86 1009.11 1009.40 1009.65 1009.82 1009.88 1009.83 1009.68 1009.48 1009.27 1009.06 1008.90 1008.77 1008.67 1008.60 1008.53 1008.47 1008.42 1008.37 1008.34
1010.38 1010.82 1011.20 1011.48 1011.63 1011.67 1011.65 1011.64 1011.70 1011.84 1012.03 1012.24 1012.40 1012.42 1012.26 1011.91 1011.39 1010.76 1010.11 1009.53 1009.09 1008.83 1008.77 1008.87 1009.08 1009.33 1009.55 1009.69 1009.72 1009.65 1009.50 1009.29 1009.06 1008.86 1008.68 1008.55 1008.44 1008.36 1008.27 1008.18 1008.09 1008.01 1007.94
1010.13 1010.58 1011.00 1011.32 1011.51 1011.58 1011.57 1011.56 1011.59 1011.70 1011.87 1012.07 1012.23 1012.29 1012.20 1011.92 1011.48 1010.92 1010.32 1009.77 1009.32 1009.03 1008.92 1008.95 1009.08 1009.26 1009.41 1009.51 1009.51 1009.43 1009.28 1009.09 1008.89 1008.71 1008.56 1008.44 1008.34 1008.26 1008.16 1008.05 1007.93 1007.80 1007.69
1010.02 1010.47 1010.92 1011.26 1011.47 1011.55 1011.53 1011.49 1011.48 1011.54 1011.68 1011.85 1012.02 1012.11 1012.08 1011.88 1011.53 1011.06 1010.54 1010.02 1009.58 1009.26 1009.07 1009.02 1009.06 1009.14 1009.22 1009.26 1009.24 1009.16 1009.03 1008.88 1008.72 1008.59 1008.48 1008.40 1008.32 1008.24 1008.14 1008.02 1007.87 1007.71 1007.57
1010.03 1010.47 1010.92 1011.27 1011.48 1011.55 1011.51 1011.43 1011.37 1011.38 1011.46 1011.60 1011.76 1011.87 1011.89 1011.77 1011.51 1011.12 1010.67 1010.20 1009.77 1009.42 1009.17 1009.03 1008.98 1008.97 1008.97 1008.96 1008.92 1008.84 1008.74 1008.63 1008.53 1008.46 1008.40 1008.35 1008.31 1008.24 1008.14 1008.01 1007.85 1007.68 1007.51
1010.09 1010.54 1010.98 1011.32 1011.52 1011.56 1011.50 1011.38 1011.26 1011.21 1011.23 1011.33 1011.46 1011.57 1011.62 1011.56 1011.36 1011.06 1010.66 1010.23 1009.81 1009.44 1009.15 1008.94 1008.80 1008.72 1008.66 1008.61 1008.55 1008.48 1008.41 1008.35 1008.31 1008.28 1008.27 1008.26 1008.23 1008.18 1008.09 1007.96 1007.80 1007.63 1007.46
1010.19 1010.63 1011.05 1011.38 1011.56 1011.58 1011.48 1011.32 1011.16 1011.05 1011.02 1011.06 1011.15 1011.24 1011.28 1011.24 1011.09 1010.83 1010.49 1010.09 1009.69 1009.31 1008.98 1008.72 1008.53 1008.39 1008.29 1008.22 1008.15 1008.10 1008.06 1008.03 1008.03 1008.03 1008.05 1008.06 1008.06 1008.02 1007.94 1007.82 1007.68 1007.53 1007.39
1010.31 1010.74 1011.14 1011.43 1011.58 1011.58 1011.46 1011.26 1011.06 1010.90 1010.82 1010.80 1010.83 1010.88 1010.90 1010.85 1010.71 1010.47 1010.15 1009.78 1009.39 1009.02 1008.68 1008.41 1008.19 1008.03 1007.90 1007.82 1007.75 1007.71 1007.68 1007.67 1007.68 1007.71 1007.73 1007.76 1007.76 1007.73 1007.67 1007.58 1007.48 1007.37 1007.29
1010.46 1010.86 1011.22 1011.47 1011.58 1011.55 1011.40 1011.19 1010.97 1010.78 1010.64 1010.57 1010.55 1010.54 1010.51 1010.42 1010.26 1010.02 1009.70 1009.35 1008.97 1008.61 1008.29 1008.02 1007.80 1007.64 1007.52 1007.43 1007.36 1007.31 1007.29 1007.28 1007.28 1007.30 1007.32 1007.34 1007.34 1007.33 1007.30 1007.25 1007.20 1007.17 1007.16
1010.64 1010.99 1011.28 1011.47 1011.53 1011.47 1011.31 1011.09 1010.86 1010.65 1010.49 1010.37 1010.29 1010.22 1010.13 1009.99 1009.78 1009.52 1009.19 1008.84 1008.48 1008.14 1007.84 1007.59 1007.39 1007.24 1007.12 1007.03 1006.96 1006.90 1006.86 1006.83 1006.81 1006.80 1006.81 1006.82 1006.83 1006.84 1006.85 1006.86 1006.88 1006.93 1007.01
1010.84 1011.10 1011.31 1011.42 1011.43 1011.33 1011.16 1010.94 1010.72 1010.51 1010.34 1010.19 1010.07 1009.94 1009.78 1009.58 1009.32 1009.02 1008.67 1008.31 1007.96 1007.64 1007.36 1007.14 1006.96 1006.82 1006.71 1006.61 1006.52 1006.44 1006.36 1006.30 1006.25 1006.21 1006.20 1006.20 1006.23 1006.28 1006.34 1006.43 1006.54 1006.67 1006.84
1011.00 1011.17 1011.27 1011.30 1011.24 1011.11 1010.93 1010.72 1010.52 1010.33 1010.16 1010.01 1009.85 1009.67 1009.45 1009.19 1008.88 1008.53 1008.15 1007.78 1007.43 1007.12 1006.85 1006.64 1006.47 1006.34 1006.22 1006.10 1005.99 1005.87 1005.76 1005.65 1005.56 1005.51 1005.48 1005.50 1005.56 1005.66 1005.79 1005.96 1006.16 1006.39 1006.64
1011.10 1011.15 1011.14 1011.07 1010.94 1010.78 1010.59 1010.41 1010.24 1010.08 1009.93 1009.78 1009.60 1009.39 1009.13 1008.81 1008.44 1008.04 1007.63 1007.24 1006.87 1006.55 1006.29 1006.08 1005.90 1005.75 1005.61 1005.47 1005.32 1005.16 1005.00 1004.86 1004.75 1004.68 1004.67 1004.71 1004.82 1004.98 1005.20 1005.46 1005.74 1006.06 1006.39
1011.07 1011.01 1010.89 1010.73 1010.55 1010.35 1010.17 1010.00 1009.87 1009.74 1009.62 1009.48 1009.31 1009.07 1008.77 1008.41 1007.99 1007.55 1007.09 1006.66 1006.27 1005.93 1005.65 1005.41 1005.21 1005.04 1004.86 1004.68 1004.49 1004.29 1004.10 1003.94 1003.82 1003.76 1003.77 1003.86 1004.03 1004.26 1004.56 1004.91 1005.28 1005.66 1006.05
1010.90 1010.74 1010.54 1010.30 1010.07 1009.85 1009.67 1009.53 1009.43 1009.34 1009.25 1009.13 1008.95 1008.69 1008.36 1007.96 1007.50 1007.01 1006.51 1006.04 1005.61 1005.24 1004.92 1004.65 1004.41 1004.20 1003.98 1003.76 1003.54 1003.31 1003.11 1002.94 1002.82 1002.79 1002.84 1002.98 1003.22 1003.53 1003.90 1004.32 1004.75 1005.18 1005.61
1010.59 1010.37 1010.10 1009.82 1009.56 1009.34 1009.17 1009.05 1008.97 1008.91 1008.84 1008.72 1008.54 1008.27 1007.91 1007.46 1006.96 1006.42 1005.89 1005.37 1004.90 1004.49 1004.13 1003.82 1003.55 1003.30 1003.05 1002.80 1002.56 1002.32 1002.11 1001.95 1001.86 1001.86 1001.96 1002.16 1002.45 1002.82 1003.25 1003.71 1004.18 1004.64 1005.08
1010.20 1009.95 1009.65 1009.36 1009.09 1008.87 1008.71 1008.61 1008.55 1008.50 1008.44 1008.31 1008.11 1007.82 1007.42 1006.94 1006.40 1005.82 1005.24 1004.68 1004.18 1003.73 1003.34 1003.00 1002.70 1002.43 1002.16 1001.91 1001.66 1001.43 1001.24 1001.11 1001.06 1001.09 1001.23 1001.47 1001.80 1002.20 1002.66 1003.13 1003.61 1004.07 1004.49
1009.80 1009.54 1009.25 1008.96 1008.70 1008.50 1008.36 1008.27 1008.22 1008.17 1008.09 1007.94 1007.71 1007.38 1006.95 1006.42 1005.84 1005.23 1004.61 1004.03 1003.50 1003.03 1002.62 1002.27 1001.96 1001.69 1001.43 1001.19 1000.97 1000.77 1000.62 1000.52 1000.50 1000.57 1000.74 1000.99 1001.33 1001.73 1002.17 1002.62 1003.08 1003.50 1003.90
1009.43 1009.20 1008.94 1008.68 1008.45 1008.27 1008.15 1008.07 1008.01 1007.94 1007.83 1007.64 1007.37 1006.99 1006.51 1005.95 1005.33 1004.69 1004.05 1003.45 1002.91 1002.44 1002.04 1001.70 1001.42 1001.17 1000.94 1000.74 1000.56 1000.41 1000.30 1000.24 1000.25 1000.34 1000.51 1000.76 1001.07 1001.42 1001.81 1002.21 1002.61 1002.99 1003.34
1009.14 1008.95 1008.73 1008.51 1008.33 1008.18 1008.07 1007.99 1007.91 1007.81 1007.66 1007.43 1007.10 1006.67 1006.14 1005.54 1004.89 1004.23 1003.59 1002.99 1002.46 1002.01 1001.63 1001.33 1001.09 1000.89 1000.72 1000.57 1000.45 1000.35 1000.29 1000.27 1000.30 1000.39 1000.54 1000.74 1001.00 1001.28 1001.59 1001.91 1002.23 1002.54 1002.84
1008.92 1008.77 1008.61 1008.44 1008.29 1008.17 1008.07 1007.98 1007.89 1007.75 1007.55 1007.26 1006.88 1006.40 1005.83 1005.19 1004.52 1003.85 1003.22 1002.64 1002.14 1001.72 1001.39 1001.14 1000.95 1000.81 1000.71 1000.62 1000.56 1000.52 1000.49 1000.50 1000.54 1000.61 1000.72 1000.87 1001.05 1001.25 1001.46 1001.68 1001.91 1002.14 1002.39
1008.73 1008.64 1008.52 1008.40 1008.28 1008.18 1008.09 1007.99 1007.87 1007.69 1007.45 1007.11 1006.67 1006.14 1005.54 1004.88 1004.20 1003.53 1002.91 1002.36 1001.90 1001.53 1001.25 1001.05 1000.93 1000.85 1000.81 1000.78 1000.77 1000.77 1000.77 1000.79 1000.82 1000.87 1000.94 1001.02 1001.11 1001.22 1001.34 1001.47 1001.61 1001.77 1001.97
1008.55 1008.49 1008.41 1008.32 1008.23 1008.15 1008.06 1007.95 1007.79 1007.58 1007.28 1006.90 1006.42 1005.85 1005.22 1004.55 1003.87 1003.21 1002.62 1002.10 1001.68 1001.35 1001.12 1000.98 1000.91 1000.88 1000.88 1000.90 1000.92 1000.94 1000.96 1000.97 1000.99 1001.01 1001.03 1001.05 1001.07 1001.11 1001.15 1001.20 1001.27 1001.38 1001.54
Thickness
5751 5751 5750 5749 5745 5742 5738 5735 5731 5729 5726 5723 5720 5719 5719 5720 5720 5721 5719 5717 5715 5714 5714 5715 5716 5716 5716 5715 5714 5713 5712 5713 5714 5712 5715 5721 5726 5728 5730 5733 5734 5736 5738
5745 5744 5743 5743 5739 5735 5732 5729 5724 5720 5717 5713 5712 5712 5712 5712 5713 5713 5711 5710 5708 5707 5707 5706 5707 5709 5709 5709 5709 5708 5706 5707 5710 5707 5706 5707 5713 5722 5730 5731 5732 5735 5738
5741 5739 5738 5736 5733 5729 5726 5722 5717 5712 5708 5704 5703 5703 5702 5703 5702 5701 5701 5702 5701 5700 5699 5698 5698 5699 5701 5701 5702 5702 5701 5699 5703 5706 5703 5701 5702 5713 5724 5728 5731 5734 5737
5741 5737 5734 5730 5727 5724 5721 5716 5711 5705 5700 5696 5692 5688 5686 5686 5688 5689 5690 5691 5691 5691 5691 5690 5690 5689 5691 5692 5694 5697 5697 5695 5694 5699 5704 5705 5705 5702 5709 5719 5727 5732 5734
5739 5733 5730 5726 5723 5719 5714 5709 5704 5698 5692 5687 5683 5679 5677 5676 5676 5676 5677 5679 5681 5682 5683 5682 5681 5680 5680 5682 5684 5686 5688 5689 5689 5691 5693 5697 5701 5704 5701 5703 5713 5722 5729
5736 5732 5728 5724 5718 5714 5708 5702 5695 5689 5684 5679 5674 5670 5667 5665 5664 5664 5665 5667 5670 5672 5673 5673 5671 5670 5670 5670 5672 5674 5677 5680 5683 5685 5688 5688 5690 5694 5698 5699 5705 5710 5720
5734 5728 5723 5717 5711 5706 5701 5695 5688 5681 5676 5671 5667 5662 5659 5657 5656 5657 5658 5657 5658 5659 5660 5661 5660 5660 5660 5660 5660 5662 5666 5669 5672 5676 5680 5684 5687 5692 5695 5697 5701 5707 5715
5733 5725 5719 5713 5706 5701 5694 5688 5681 5674 5669 5664 5660 5656 5653 5651 5650 5648 5647 5646 5647 5649 5650 5650 5650 5651 5651 5651 5651 5651 5654 5657 5661 5665 5669 5674 5680 5685 5689 5693 5696 5698 5704
5728 5721 5715 5708 5701 5694 5687 5681 5675 5668 5663 5658 5654 5650 5648 5644 5641 5639 5638 5639 5639 5640 5641 5639 5639 5640 5641 5641 5642 5642 5643 5646 5649 5653 5657 5661 5668 5674 5681 5688 5693 5692 5690
5722 5716 5708 5702 5695 5689 5682 5676 5669 5663 5658 5653 5648 5645 5640 5636 5634 5632 5630 5629 5629 5629 5629 5629 5629 5629 5630 5631 5631 5632 5634 5635 5638 5641 5645 5650 5655 5662 5668 5676 5684 5690 5690
5715 5708 5702 5696 5690 5683 5676 5669 5663 5656 5651 5646 5641 5636 5632 5629 5626 5624 5622 5621 5620 5618 5617 5617 5616 5616 5616 5617 5618 5620 5622 5623 5626 5629 5633 5638 5643 5648 5656 5663 5671 5679 5685
5709 5703 5696 5689 5682 5675 5668 5661 5655 5649 5644 5639 5633 5628 5624 5621 5618 5616 5614 5612 5609 5608 5606 5604 5603 5603 5603 5603 5603 5604 5607 5610 5612 5616 5620 5626 5631 5637 5644 5650 5658 5666 5674
5703 5696 5689 5681 5674 5667 5660 5654 5648 5642 5636 5631 5625 5620 5616 5612 5609 5607 5604 5602 5599 5596 5593 5591 5589 5587 5585 5585 5585 5587 5589 5593 5597 5602 5607 5613 5618 5625 5632 5639 5646 5654 5664
5696 5688 5681 5674 5667 5660 5654 5647 5641 5635 5629 5623 5617 5611 5607 5604 5601 5598 5594 5591 5587 5583 5580 5577 5573 5570 5568 5566 5566 5568 5571 5574 5580 5586 5593 5600 5606 5613 5619 5627 5634 5642 5650
5689 5682 5674 5668 5661 5654 5647 5641 5634 5628 5622 5615 5609 5604 5601 5597 5593 5589 5585 5580 5576 5571 5567 5562 5557 5553 5550 5550 5550 5550 5552 5556 5562 5569 5577 5585 5593 5601 5607 5615 5623 5630 5638
5684 5677 5670 5662 5655 5647 5641 5634 5628 5621 5614 5607 5602 5597 5593 5589 5585 5580 5576 5571 5565 5559 5553 5547 5542 5538 5536 5535 5532 5532 5534 5538 5545 5553 5561 5569 5578 5587 5595 5603 5611 5619 5627
5679 5671 5664 5656 5649 5643 5636 5628 5621 5615 5608 5601 5595 5590 5586 5582 5577 5572 5567 5561 5555 5548 5541 5536 5531 5527 5523 5520 5517 5517 5518 5523 5531 5538 5546 5555 5567 5575 5583 5590 5598 5607 5616
5674 5665 5658 5652 5646 5639 5631 5623 5616 5608 5601 5595 5589 5584 5579 5574 5570 5564 5558 5552 5545 5539 5533 5527 5522 5517 5514 5510 5508 5506 5507 5513 5520 5528 5535 5543 5552 5563 5571 5578 5586 5595 5605
5669 5662 5655 5649 5642 5635 5627 5618 5610 5603 5596 5590 5584 5578 5573 5568 5563 5558 5552 5546 5539 5533 5527 5522 5516 5512 5508 5505 5502 5499 5501 5505 5513 5520 5527 5534 5543 5553 5560 5568 5577 5586 5595
5668 5660 5653 5646 5638 5630 5622 5612 5605 5598 5591 5584 5578 5573 5568 5563 5559 5553 5547 5541 5535 5529 5524 5519 5513 5509 5506 5503 5499 5496 5497 5501 5506 5513 5520 5528 5535 5543 5550 5559 5567 5576 5586
5666 5658 5649 5641 5633 5626 5617 5608 5600 5593 5586 5579 5573 5569 5565 5560 5556 5551 5545 5538 5532 5527 5522 5517 5512 5508 5505 5502 5498 5495 5495 5499 5502 5508 5515 5523 5529 5536 5543 5551 5560 5568 5578
5663 5654 5645 5637 5630 5622 5613 5604 5596 5589 5582 5575 5570 5566 5562 5558 5555 5548 5542 5537 5531 5526 5521 5516 5512 5508 5505 5500 5497 5494 5492 5495 5499 5504 5511 5518 5523 5529 5535 5543 5552 5559 5568
5659 5651 5643 5635 5627 5619 5609 5600 5593 5586 5578 5572 5568 5564 5560 5557 5553 5547 5541 5536 5530 5525 5520 5515 5510 5507 5504 5501 5497 5493 5492 5493 5496 5500 5506 5513 5519 5523 5529 5536 5544 5551 5561
5655 5648 5640 5631 5624 5616 5607 5598 5590 5582 5575 5569 5565 5562 5559 5556 5552 5546 5540 5535 5530 5524 5519 5514 5510 5506 5503 5501 5498 5497 5494 5493 5495 5499 5504 5509 5514 5520 5527 5533 5539 5547 5557
5653 5645 5637 5628 5621 5613 5604 5596 5587 5579 5572 5566 5563 5560 5557 5555 5550 5546 5540 5535 5530 5521 5514 5512 5508 5504 5503 5497 5493 5494 5497 5499 5500 5502 5506 5510 5515 5520 5527 5534 5540 5546 5553
5650 5642 5634 5626 5619 5611 5602 5593 5584 5576 5569 5565 5561 5558 5555 5553 5549 5545 5542 5535 5528 5521 5513 5506 5501 5502 5498 5496 5495 5495 5496 5498 5500 5505 5510 5514 5519 5524 5529 5535 5540 5546 5552